STARLINK-33967

Satellite information

Favourite Embed

Satellite Type and Status

PAYLOADIN ORBIT

Key statistics

Satellite STARLINK-33967 at a glance.

Uptime

211

Days in orbit

Revolutions

≈ 15.0

Per day

Orbit

LEO

Low Earth Orbit

Inclination

70.0

Latest

Satellite identification and parameters

Extended collection of information and parameters for STARLINK-33967.

Object identification

Identified? True

Debris? False

Object name: STARLINK-33967

International designator: 2025-102F

Object number (NORAD): 64027

Object ID (CCSDS): 64027

Country: UNITED STATES OF AMERICA (US)

Current information (Y/N): Y

RCS size: LARGE

Orbital parameters

Period: 96.108 minutes

Inclination: 70.0026 deg

SMA: 6950.232 km

Apoapsis: 574.026 km

Periapsis: 570.169 km

RAAN: 334.9379 deg

Eccentricy: 0.00027744

Argument of periapsis: 269.9341 deg

Mean anomaly: 90.15 deg

Mean motion: 14.98317253 rev/day

Mean motion (dot): 0.00001122 rev/day2

B* drag term: 0.00010181875 1/REarth

Two-line elements (TLE)

Creation date: Dec. 12, 2025, 10:14 a.m.

Reference frame: TEME

Reference center: EARTH

Epoch: Dec. 12, 2025, 5:51 a.m. UTC

TLE line 0: 0 STARLINK-33967

TLE line 1: 1 64027U 25102F 25346.24381605 .00001122 00000-0 10182-3 0 9999

TLE line 2: 2 64027 70.0026 334.9379 0002774 269.9341 90.1500 14.98317253 32797

Live tracking on map

Real-time ground track for satellite STARLINK-33967.

In-orbit conjunctions

There are no conjunctions computed for STARLINK-33967, at the moment. Check back to stay up to date, as we update our databases every day.

Go to all conjunctions

Associated space launch

A batch of 26 satellites for the Starlink mega-constellation - SpaceX's project for space-based Internet communication system.

STARLINK-33967 was lifted into orbit during the mission ‘Falcon 9 Block 5 | Starlink Group 15-5’, on board a Falcon 9 space rocket.

The launch took place on May 16, 2025, 1:43 p.m. from Space Launch Complex 4E.

For more information about the launch, click the button.

Launch to space Falcon 9 Block 5 | Starlink Group 15-5
Falcon 9 Block 5 | Starlink Group 15-5

Agency: SpaceX

Status: Launch Successful

Launch date: May 16, 2025, 1:43 p.m. UTC

Rocket: Falcon 9

Launch pad: Space Launch Complex 4E

Location: Vandenberg SFB, CA, USA

...

Latest news about this satellite

News about space launch
Live coverage: SpaceX plans morning launch of Starlink satellites from California

The Starlink 15-5 will be SpaceX’s 58th Falcon 9 launch of the year. Liftoff from pad 4 East at Vandneberg Space Force Base is targeted 6:43 a.m. PDT (9:43 a.m. EDT, 1343 UTC).

News about space launch
Launch Roundup: Orbital launches from five countries planned

On the heels of a busy April, activity is ramping up for May with launches… The post Launch Roundup: Orbital launches from five countries planned appeared first on NASASpaceFlight.com.


Newsletter sign-up

Weekly statistics, charts and insights to help you stay on top of the space industry.